星链-37857(STARLINK-37857)

导读

STARLINK-37857(NORAD编号69429)是SpaceX星链低轨通信星座的成员卫星,属于V2优化版批次,大概率于2025年中随猎鹰9号火箭发射入轨。该卫星配备激光星间链路,采用Ku/Ka通信波段,单星覆盖区域直径约100公里,支持最高301Mbps的终端下行通信,为全球用户提供高速宽带接入服务。截至2026年6月,该卫星处于在轨运行状态,所属星链星座已在全球服务超600万用户,且正逐步调整轨道至480公里高度以降低空间碰撞风险。

Basic Information
目录编号:
69429
目录名称:
STARLINK-37857
国际标识:
2026-126K
轨道中心:
EARTH
卫星名称:
星链-37857
卫星全名:
星链-37857(STARLINK-37857)
卫星状态:
在轨 (已飞行90 天)
发射日期:
2026-06-07 UTC
国别 :
美国 (US)
星等 :
--
Orbit Information
数据来源 国际轨道数据
星历时间: 2026-09-05T11:39:43+0800
8小时前
查看轨道信息
半长轴: 6843.699km
偏心率: 0.0002556
轨道倾角: 97.285°
近地点辐角 89.210°
升交点赤经 109.625°
平近点角 270.943°
近地点: 463.812km
远地点: 467.312km
周期: 93.907分钟
每日圈数: 15.33439
Detailed Information
固有亮度:
5
最大亮度:
2.5
卫星平台:
Starlink V1.0
覆盖范围:
全球
运营商:
太空探索技术公司
运营商所在国:
美国
制造商(研发单位):
太空探索技术公司
制造商所在国:
美国
使用方式:
暂无
Satellite Introduction
Starlink 计划是 SpaceX 推出的全球卫星互联网项目,通过发射低轨道卫星,为全球尤其是偏远地区提供高速、低延迟的互联网服务。自 2019 年起,Starlink 已部署数千颗卫星,旨在缩小全球数字鸿沟,推动互联网普及。该项目还为军事、航空等行业提供通信支持,带来广泛经济效益。
2D Orbit Map
3D Orbit Map
Orbit Altitude Analysis Chart
Orbit Inclination Analysis Chart
Orbit Comprehensive Analysis Chart
View Comprehensive Chart
Conjunction Data List
Event ID Objects TCA Miss Dist (km) Collision Risk Probability Collision Risk Index (CRI) Action
CDM_260906-163905-213806-942921
2026-09-06T
16:39:54+0000
1.892 km
极远距离
3.181019E-6 低风险 0.45
CDM_260905-123901-957306-942926
2026-09-05T
12:39:25+0000
2.088 km
极远距离
2.613812E-6 低风险 0.43
CDM_260907-230705-247306-942921
2026-09-07T
23:07:45+0000
2.093 km
极远距离
2.529318E-6 低风险 0.43
CDM_260905-143304-736106-942921
2026-09-05T
14:33:25+0000
2.403 km
极远距离
1.883242E-6 低风险 0.4
CDM_260906-224605-476206-942921
2026-09-06T
22:46:25+0000
2.632 km
极远距离
1.603903E-6 低风险 0.39
CDM_260907-222604-857806-942921
2026-09-07T
22:26:58+0000
2.910 km
极远距离
1.27552E-6 低风险 0.37
CDM_260907-174205-316806-942921
2026-09-07T
17:42:18+0000
2.545 km
极远距离
1.18935E-6 低风险 0.37
CDM_260906-160406-539906-942921
2026-09-06T
16:04:17+0000
1.534 km
极远距离
1.053195E-6 低风险 0.35
CDM_260905-043005-325206-942921
2026-09-05T
04:30:27+0000
2.995 km
极远距离
8.049508E-7 极低风险 0.33
CDM_260906-151706-539906-942921
2026-09-06T
15:17:18+0000
1.763 km
极远距离
7.350766E-7 极低风险 0.32